This demonstration page uses our WeatherBlox Daily Observations layout. Learn more.

Left ArrowRight Arrow

38.20091, -84.87328

Hourly Observations for September 12, 2022

Temp ( °F °C ) Dew Point ( °F °C ) Humidity (%) Winds ( mph kmh ) Pressure ( in mb ) Visibility ( mi km ) Precip ( " mm )
12:53 am 00:53 Cloudy 68 20 N/A N/A W 3 6 29.93 1014 10 16 0.00 0.00
1:07 am 01:07 Cloudy 67 19.4 N/A N/A W 3 6 29.93 1014 10 16 0.00 0.00
1:16 am 01:16 Cloudy 67 19.4 N/A N/A W 6 9 29.93 1014 10 16 0.00 0.00
1:27 am 01:27 Cloudy 67 19.4 N/A N/A W 5 7 29.93 1014 10 16 0.00 0.00
1:53 am 01:53 Cloudy 66 18.9 N/A N/A WNW 7 11 29.93 1013 10 16 0.00 0.00
2:53 am 02:53 Cloudy 65 18.3 N/A N/A W 5 7 29.91 1013 10 16 0.00 0.00
3:53 am 03:53 Cloudy 65 18.3 N/A N/A W 6 9 29.91 1013 10 16 0.00 0.00
4:03 am 04:03 Cloudy 65 18.3 N/A N/A WNW 5 7 29.92 1013 10 16 0.00 0.00
4:20 am 04:20 Cloudy 64 17.8 N/A N/A WNW 10 17 29.92 1013 10 16 0.00 0.00
4:46 am 04:46 Cloudy 64 17.8 N/A N/A WNW 6 9 29.92 1013 10 16 0.00 0.00
4:53 am 04:53 Cloudy 64 17.8 N/A N/A WNW 5 7 29.91 1013 10 16 0.00 0.00
5:00 am 05:00 Cloudy 64 17.8 N/A N/A WNW 6 9 29.92 1013 10 16 0.00 0.00
5:53 am 05:53 Cloudy 63 17.2 N/A N/A WNW 7 11 29.92 1013 10 16 0.00 0.00
6:05 am 06:05 Cloudy 63 17.2 N/A N/A WNW 6 9 29.93 1014 10 16 0.00 0.00
6:53 am 06:53 Cloudy 63 17.2 58 14.4 84 84 W 5 7 29.93 1014 10 16 0.00 0.00
7:53 am 07:53 Cloudy 62 16.7 56 13.3 80 80 WNW 7 11 29.95 1014 10 16 0.00 0.00
8:53 am 08:53 Cloudy 62 16.7 55 12.8 78 78 W 3 6 29.96 1015 10 16 0.00 0.00
9:14 am 09:14 Partly Cloudy 63 17.2 55 12.8 75 75 W 6 9 29.96 1015 10 16 0.00 0.00
9:36 am 09:36 Mostly Cloudy 63 17.2 55 12.8 75 75 WNW 9 15 29.96 1015 10 16 0.00 0.00
9:44 am 09:44 Partly Cloudy 64 17.8 55 12.8 73 73 WNW 10 17 29.97 1015 10 16 0.00 0.00
9:53 am 09:53 Partly Cloudy 63 17.2 55 12.8 75 75 WNW 8 13 29.96 1015 10 16 0.00 0.00
10:53 am 10:53 Partly Cloudy 66 18.9 54 12.2 65 65 WNW 8 13 29.97 1015 10 16 0.00 0.00
11:53 am 11:53 Mostly Sunny 67 19.4 51 10.6 57 57 W 8 13 29.96 1015 10 16 0.00 0.00
12:53 pm 12:53 Partly Cloudy 69 20.6 51 10.6 53 53 W 8 13 29.95 1014 10 16 0.00 0.00
1:53 pm 13:53 Sunny 71 21.7 50 10 47 47 W 9 15 29.93 1014 10 16 0.00 0.00
2:53 pm 14:53 Mostly Sunny 72 22.2 50 10 46 46 SW 7 11 29.91 1013 10 16 0.00 0.00
3:53 pm 15:53 Mostly Sunny 73 22.8 52 11.1 48 48 SSW 10 17 29.89 1012 10 16 0.00 0.00
4:53 pm 16:53 Mostly Sunny 73 22.8 51 10.6 46 46 SW 9 15 29.88 1012 10 16 0.00 0.00
5:53 pm 17:53 Sunny 72 22.2 50 10 46 46 SW 14 22 29.87 1012 10 16 0.00 0.00
6:53 pm 18:53 Sunny 71 21.7 50 10 47 47 SSW 10 17 29.87 1011 10 16 0.00 0.00
7:53 pm 19:53 Mostly Cloudy 67 19.4 52 11.1 59 59 S 6 9 29.87 1012 10 16 0.00 0.00
8:53 pm 20:53 Mostly Cloudy 67 19.4 53 11.7 61 61 SSW 8 13 29.86 1011 10 16 0.00 0.00
9:53 pm 21:53 Clear 64 17.8 52 11.1 65 65 SW 6 9 29.88 1012 10 16 0.00 0.00
10:53 pm 22:53 Clear 61 16.1 52 11.1 72 72 SW 6 9 29.87 1012 10 16 0.00 0.00
11:53 pm 23:53 Clear 60 15.6 52 11.1 75 75 SW 8 13 29.86 1011 10 16 0.00 0.00

Powered by AerisWeather